Miscellaneous Local Product
Issued by NWS North Platte, NE

Home | Current Version | Previous Version | Text Only | Print | Product List | Glossary On
Versions: 1 2 3 4 5 6 7 8 9 10 11 12 13 14 15 16 17 18 19 20 21 22 23 24 25 26 27 28 29 30 31 32 33 34 35 36 37 38 39 40 41 42 43 44 45 46 47 48 49 50
032
AXUS43 KLBF 192210
MISLBF


WESTERN AND NORTH CENTRAL NEBRASKA HOURLY WEATHER ROUNDUP
NATIONAL WEATHER SERVICE NORTH PLATTE NE
400 PM CST FRI JAN 19 2018

NOTE: "FAIR" INDICATES FEW OR NO CLOUDS BELOW 12,000 FEET WITH NO
SIGNIFICANT WEATHER AND/OR OBSTRUCTIONS TO VISIBILITY.

NOTE: STATIONS NOT REPORTING VARIABLES SUCH AS SKY/WEATHER OR
PRESSURE ARE PROVIDED BY RAWS AND APRS NETWORKS AND ARE NOT UNDER
NATIONAL WEATHER SERVICE QUALITY CONTROL.

...OBSERVATIONS IN AND NEAR THE EASTERN PANHANDLE OF NEBRASKA...

CITY           SKY/WX    TMP DP  RH WIND       PRES   REMARKS
GORDON         FAIR      42  32  68 CALM      29.68R
CHADRON        CLOUDY    45  32  60 NE6       29.68S
ALLIANCE       CLOUDY    42  32  67 N8        29.66S
SIDNEY         CLOUDY    52  29  41 W6        29.68S
CRESCENT LAKE    N/A     47  31  54 N9          N/A
$$

...OBSERVATIONS IN NORTHERN NEBRASKA AND FAR SOUTHERN SOUTH DAKOTA...

CITY           SKY/WX    TMP DP  RH WIND       PRES   REMARKS
WINNER         FAIR      46  34  62 NW9       29.67R
VALENTINE      CLOUDY    46  33  60 NW7       29.67R
AINSWORTH      CLOUDY    44  34  69 N12       29.66R
O`NEILL        CLOUDY    47  37  68 NW10      29.64R
THEDFORD       CLOUDY    50  33  52 N6        29.66R
BROKEN BOW     CLOUDY    54  32  43 CALM      29.63R
ORD            CLOUDY    59  32  36 NW6       29.63R
ALBION         CLOUDY    52  36  54 CALM      29.63R
VALENTINE NWR    N/A     48  32  54 N13G20      N/A
HALSEY           N/A     54  32  43 NW6         N/A
BUTTE            N/A     44  34  68 NW12        N/A
CHAMBERS         N/A     51  32  48 NW8         N/A
EWING            N/A     53  36  53 NW5         N/A
$$

...OBSERVATIONS IN SOUTHWEST NEBRASKA AND FAR NORTHEAST COLORADO...

CITY           SKY/WX    TMP DP  RH WIND       PRES   REMARKS
WRAY           FAIR      68  18  14 N6        29.67R
HOLYOKE        FAIR      61  25  25 N8        29.66F
IMPERIAL       CLOUDY    61  28  28 N8        29.66R
OGALLALA       CLOUDY    46  32  58 CALM      29.66S
NORTH PLATTE   CLOUDY    50  33  52 W6        29.65R
MCCOOK         PTSUNNY   58  27  30 CALM      29.64S
LEXINGTON      CLOUDY    50  37  60 S3        29.64R
STAPLETON        N/A     54  34  46 CALM        N/A
GOTHENBURG       N/A     56  30  37 CALM        N/A
CALLAWAY         N/A     55  36  49 NW7         N/A
$$

...OBSERVATIONS IN CENTRAL LINCOLN COUNTY AREA...

CITY           SKY/WX    TMP DP  RH WIND       PRES   REMARKS
N.P. AIRPORT   CLOUDY    50  33  52 W6        29.65R
N.P. DOWNTOWN    N/A     49  35  58 CALM        N/A
N.P. SOUTHEAST   N/A     51  33  51 CALM        N/A
N.P. HILLCREST   N/A     49  35  58 CALM        N/A
$$

...SOME OBSERVATIONS FROM AROUND THE REGION...

CITY           SKY/WX    TMP DP  RH WIND       PRES   REMARKS
DENVER         CLOUDY    65  18  16 NE9       29.71S
BERTHOUD PASS  FAIR      30  19  64 NW31G56   29.99S WCI  15
GRAND JUNCTION PTSUNNY   48  21  34 W3        29.89F
LARAMIE        MOSUNNY   51  16  24 W23G30    29.75F
CHEYENNE       PTSUNNY   57  17  21 W24G36    29.72F
CASPER         PTSUNNY   49  23  36 SW23G32   29.64F
BISMARCK       PTSUNNY   42  31  64 W7        29.63R
RAPID CITY     CLOUDY    46  31  55 N8        29.69R
PIERRE         CLOUDY    46  33  60 NW13      29.66R
SIOUX FALLS    CLOUDY    42  34  73 NW12      29.59R
OMAHA          CLOUDY    43  30  60 S14       29.67R
GRAND ISLAND   CLOUDY    49  35  58 S7        29.65R
SCOTTSBLUFF    CLOUDY    42  32  67 E3        29.66R
KANSAS CITY    CLOUDY    48  26  42 S20G26    29.79F
HILL CITY      CLOUDY    69  17  13 SW9       29.64R
WICHITA        CLOUDY    58  22  24 S23       29.78F
DODGE CITY     CLOUDY    65  19  17 S17G25    29.69F
OKLAHOMA CITY  CLOUDY    60  25  26 S20       29.88F
DALLAS         CLOUDY    55  41  59 S18       30.03F
AMARILLO       SUNNY     68  13  12 SW18      29.79F
$$




USA.gov is the U.S. government's official web portal to all federal, state and local government web resources and services.